MB7UKB-10 Weather Reports


time (UTC)temp
C
wind
direction
speed
KPH
gust
KPH
rain 1hr
cm
rain 24hr
cm
rain mn
cm
humidity
%
barometer
mb
20260508002105 7 249 0.0 0.0 0.00 0.00 0.00 83 1016.5
20260508002008 7 249 0.0 0.0 0.00 0.00 0.00 83 1016.5
20260507235008 7 142 0.0 0.0 0.00 0.00 0.00 81 1016.5
20260507225009 8 329 0.0 0.0 0.00 0.00 0.00 77 1016.9
20260507222009 10 99 0.0 0.0 0.00 0.00 0.00 73 1016.7
20260507215008 10 62 0.0 1.6 0.00 0.00 0.00 71 1016.7
20260507212008 11 206 0.0 1.6 0.00 0.00 0.00 68 1016.8
20260507205009 11 189 0.0 3.2 0.00 0.00 0.00 66 1016.5
20260507202009 12 231 1.6 1.6 0.00 0.00 0.00 63 1016.2
20260507195009 12 25 0.0 0.0 0.00 0.00 0.00 58 1015.8
20260507192009 13 69 0.0 4.8 0.00 0.00 0.00 59 1015.6
20260507185009 13 34 4.8 4.8 0.00 0.00 0.00 59 1015.4
20260507182009 14 9 1.6 6.4 0.00 0.00 0.00 57 1015.1
20260507175009 15 44 3.2 9.7 0.00 0.00 0.00 49 1015.0
20260507172009 15 92 3.2 8.0 0.00 0.00 0.00 49 1014.8
20260507165009 15 110 3.2 6.4 0.00 0.00 0.00 49 1014.9
20260507162009 15 81 3.2 6.4 0.00 0.00 0.00 50 1014.9
20260507155009 16 119 4.8 6.4 0.00 0.00 0.00 39 1014.9
20260507152008 17 59 0.0 4.8 0.00 0.00 0.00 38 1015.0
20260507145009 17 61 3.2 8.0 0.00 0.00 0.00 35 1014.9
20260507142008 17 259 6.4 9.7 0.00 0.00 0.00 34 1014.8
20260507135009 17 197 0.0 3.2 0.00 0.00 0.00 34 1015.5
20260507132008 16 312 3.2 9.7 0.00 0.00 0.00 34 1015.5
20260507125009 16 146 0.0 3.2 0.00 0.00 0.00 36 1015.6
20260507122009 15 329 0.0 3.2 0.00 0.00 0.00 36 1015.5
20260507115009 16 297 1.6 4.8 0.00 0.00 0.00 36 1015.7
20260507112008 16 193 3.2 4.8 0.00 0.00 0.00 38 1015.9
20260507105009 17 225 3.2 3.2 0.00 0.00 0.00 36 1016.0
20260507102008 16 266 3.2 6.4 0.00 0.00 0.00 42 1016.3
20260507095008 16 324 3.2 4.8 0.00 0.00 0.00 43 1016.3
20260507085008 15 328 3.2 3.2 0.00 0.00 0.00 56 1016.2
20260507082009 13 89 0.0 3.2 0.00 0.00 0.00 66 1016.5
20260507075008 12 170 1.6 3.2 0.00 0.00 0.00 69 1016.5
20260507072008 11 79 0.0 4.8 0.00 0.00 0.00 74 1016.4
20260507065008 9 153 0.0 1.6 0.00 0.00 0.00 78 1016.5
20260507062008 7 251 0.0 0.0 0.00 0.00 0.00 84 1016.4
20260507055009 5 58 0.0 3.2 0.00 0.00 0.00 92 1016.3
20260507052008 3 322 0.0 0.0 0.00 0.00 0.00 94 1016.2
20260507045008 3 352 0.0 3.2 0.00 0.00 0.00 94 1016.0
20260507042008 3 217 0.0 0.0 0.00 0.00 0.00 94 1016.0
20260507035008 3 199 0.0 0.0 0.00 0.00 0.00 94 1015.9
20260507032008 3 44 0.0 0.0 0.00 0.00 0.00 93 1016.0
20260507025008 4 311 0.0 0.0 0.00 0.00 0.00 93 1015.8
20260507022008 4 19 0.0 0.0 0.00 0.00 0.00 91 1015.9
20260507015008 5 230 0.0 0.0 0.00 0.00 0.00 90 1015.6
20260507012009 5 142 0.0 0.0 0.00 0.00 0.00 90 1015.6
20260507005008 5 269 0.0 0.0 0.00 0.00 0.00 88 1015.6